AirNav   Everest Fuels
 
 462 users online  

17M Magee Municipal Airport
Magee, Mississippi, USA

GOING TO MAGEE?


FAA INFORMATION EFFECTIVE 21 MAY 2020

Location

FAA Identifier: 17M
Lat/Long: 31-51-45.9700N 089-48-02.2350W
31-51.766167N 089-48.037250W
31.8627694,-89.8006208
(estimated)
Elevation: 555 ft. / 169.2 m (surveyed)
Variation: 01W (2015)
From city: 3 miles W of MAGEE, MS
Time zone: UTC -5 (UTC -6 during Standard Time)
Zip code: 39111

Airport Operations

Airport use: Open to the public
Control tower: no
ARTCC: MEMPHIS CENTER
FSS: GREENWOOD FLIGHT SERVICE STATION
NOTAMs facility: GWO (NOTAM-D service available)
Attendance: CONTINUOUS
Wind indicator: lighted
Segmented circle: yes
Lights: ACTVT MIRL RWY 18/36 - CTAF.
Beacon: white-green (lighted land airport)
Operates sunset to sunrise.

Airport Communications

CTAF/UNICOM: 122.8
  • APCH/DEP SVC PRVDD BY MEMPHIS ARTCC ON FREQS 125.975/307.275 (MERIDIAN RCAG).

Nearby radio navigation aids

VOR radial/distance  VOR name  Freq  Var
LBYr313/35.6EATON VORTAC110.6005E
MHZr157/37.5MAGNOLIA VORTAC113.2001W

Airport Services

Fuel available: 100LL
FUEL AVAILABLE 24/7 WITH CREDIT CARD.
Parking: tiedowns
Airframe service: NONE
Powerplant service: NONE
Bottled oxygen: NONE
Bulk oxygen: NONE

Runway Information

Runway 18/36

Dimensions: 3108 x 60 ft. / 947 x 18 m
Surface: asphalt, in fair condition
Weight bearing capacity: 
Single wheel: 19.0
Runway edge lights: medium intensity
RUNWAY 18  RUNWAY 36
Latitude: 31-52.022500N31-51.509833N
Longitude: 089-48.040833W089-48.033667W
Elevation: 553.1 ft.546.1 ft.
Traffic pattern: leftleft
Runway heading: 180 magnetic, 179 true000 magnetic, 359 true
Markings: basic, in fair conditionbasic, in fair condition
Visual slope indicator: 2-light PAPI on left (3.00 degrees glide path)
Touchdown point: yes, no lightsyes, no lights
Obstructions: 50 ft. trees, 1250 ft. from runway, 250 ft. left of centerline, 21:1 slope to clear80 ft. trees, 2500 ft. from runway, 28:1 slope to clear

Airport Ownership and Management from official FAA records

Ownership: Publicly-owned
Owner: CITY OF MAGEE
123 N. MAIN ST.
MAGEE, MS 39111
Phone 601-849-3344
Manager: ASHLEY STEELE
111 PRINE DR.
MAGEE, MS 39111
Phone 601-382-5752

Airport Operational Statistics

Aircraft based on the field: 11
Single engine airplanes: 11
    
Aircraft operations: avg 21/day *
59% transient general aviation
37% local general aviation
4% military
* for 12-month period ending 02 May 2019

Additional Remarks

RY 36 4 FT DEEP DITCH 250 FT FROM THR.
FOR CD CTC MEMPHIS ARTCC AT 901-368-8453.

Instrument Procedures

NOTE: All procedures below are presented as PDF files. If you need a reader for these files, you should download the free Adobe Reader.

NOT FOR NAVIGATION. Please procure official charts for flight.
FAA instrument procedures published for use from 21 May 2020 at 0901Z to 18 June 2020 at 0900Z.

 
IAPs - Instrument Approach Procedures
RNAV (GPS) RWY 18   download (201KB)
RNAV (GPS) RWY 36   download (200KB)
NOTE: Special Take-Off Minimums/Departure Procedures apply   download

Other nearby airports with instrument procedures:

M43 - Prentiss-Jefferson Davis County Airport (17 nm S)
M11 - Copiah County Airport (29 nm W)
KJAN - Jackson-Medgar Wiley Evers International Airport (30 nm NW)
KPIB - Hattiesburg-Laurel Regional Airport (34 nm SE)
0R0 - Columbia-Marion County Airport (34 nm S)
 
Loc | Ops | Rwys | IFR | FBO | Links
Com | Nav | Svcs | Stats | Notes

Continental Services
AirBoss

 
Area around 17M (Magee Municipal Airport)
 
Road maps at: MapQuest Bing Google
 
Aerial photo
WARNING: Photo may not be current or correct
Aerial photo of 17M (Magee Municipal Airport)
Photo by Winnfort Myles
Photo taken 17-Oct-2009

Do you have a better or more recent aerial photo of Magee Municipal Airport that you would like to share? If so, please send us your photo.

 
Sectional chart

 
Airport distance calculator
Flying to Magee Municipal Airport? Find the distance to fly.

From to 17M

Sunrise and sunset
Times for 03-Jun-2020
 Local
(UTC-5)
 Zulu
(UTC)
Morning civil twilight05:2710:27
Sunrise05:5510:55
Sunset20:0001:00
Evening civil twilight20:2801:28

Current date and time
Zulu (UTC)  03-Jun-2020 10:02:11
Local (UTC-5)  03-Jun-2020 05:02:11
 
METAR
KJAN 
31nm NW 
030954Z AUTO 19003KT 10SM FEW038 23/22 A3005 RMK AO2 SLP169 T02330217
KLUL 
34nm SE 
030955Z AUTO 00000KT 10SM OVC006 22/22 A3005 RMK A02 T02250216
K0R0 
34nm S 
030955Z AUTO 00000KT 7SM +RA OVC003 22/22 A3007 RMK AO2
KPIB 
34nm SE 
030956Z AUTO 00000KT 10SM BKN005 22/21 A3006 RMK AO2 LTG DSNT SW SLP175 T02170211
K1R7 
35nm SW 
030955Z AUTO 00000KT M1/4SM FG OVC002 23/23 A3006 RMK AO2
KHKS 
35nm NW 
030953Z AUTO 14003KT 7SM -RA OVC007 23/21 A3005 RMK AO2 RAB42 SLP166 P0000 T02330211
KMBO 
38nm NW 
030955Z AUTO 00000KT 10SM SCT002 BKN006 OVC075 22/22 A3004 RMK AO2 PWINO
KJVW 
41nm NW 
030955Z AUTO 11004KT 10SM FEW045 23/23 A3004 RMK AO2
KHBG 
46nm SE 
030953Z AUTO 00000KT 9SM BKN006 22/21 A3005 RMK AO2 LTG DSNT S AND SW SLP173 T02220206
TAF
KJAN 
31nm NW 
030520Z 0306/0406 19003KT P6SM BKN200 FM031600 20004KT P6SM SCT050 BKN200 FM032000 22005KT P6SM VCTS SCT050CB BKN100 FM032200 18006KT 4SM TSRA BR BKN025CB OVC100 FM040000 19004KT P6SM BKN040 OVC100
KPIB 
34nm SE 
030745Z 0308/0406 00000KT P6SM FEW010 FM031000 00000KT 3SM BR OVC007 FM031400 18003KT P6SM BKN012 FM031800 22005KT P6SM VCTS BKN040CB FM032000 20006KT 4SM TSRA BR BKN025CB OVC100 FM032200 18004KT P6SM -RA BKN040 OVC100 FM040000 15003KT P6SM BKN100
KHKS 
35nm NW 
030520Z 0306/0406 17003KT P6SM BKN200 FM031600 22005KT P6SM SCT050 BKN200 FM032000 24005KT P6SM VCTS SCT050CB BKN100 FM032200 20006KT 4SM TSRA BR BKN025CB OVC100 FM040000 17004KT P6SM BKN040 OVC100
NOTAMs
Click for the latest NOTAMs
NOTAMs are issued by the DoD/FAA and will open in a separate window not controlled by AirNav.

 

 
 

FBO, Fuel Providers, and Aircraft Ground Support

  
 Business Name 
 
 Contact 
 
 Services / Description 
 
Fuel Prices
 
Comments
  
Magee Municipal Airport 601-849-3571
no information available

If you are affiliated with Magee Municipal Airport and would like to show here your services, contact info, web link, logo, and more, click here
100LL
SS $4.75 
 Updated 09-Oct-2017
 
   1 read write
SS=Self service
Update Fuel Prices
 

Would you like to see your business listed on this page?

 If your business provides an interesting product or service to pilots, flight crews, aircraft, or users of the Magee Municipal Airport, you should consider listing it here.  To start the listing process, click on the button below
 
Add a business
 

Other Pages about Magee Municipal Airport

Update a link
 
Copyright © AirNav, LLC. All rights reserved. Privacy Policy  Contact